Location: Bernay
(48.6766°N, 2.9386°E)
Time: 10:15:31
(UTC+00:00)

NOSS 3-1 (C) - Pass Details

Date: 12 January 2026
Orbit: 618 x 1583 km, 63.4° (Epoch: 10 January)

Event Time Altitude Azimuth Distance (km) Brightness Sun altitude
Rises 19:56:06 0° 318° (NW) 3,666 7.1 -35.6°
Reaches altitude 10° 19:58:27 10° 320° (NW) 2,842 6.4 -35.9°
Enters shadow 20:03:04 48° 334° (NNW) 1,484 4.5 -36.7°
